Вернуться в каталог

SL-16 DEB

АктивенLEO
NORAD 26073·DEBRIS·🇷🇺 Russia

Запущен Feb 3, 2000 с Baikonur Cosmodrome

Loading…

Ближайшие Пролёты (ближайшие 24 часа)

TLE

СвежийSource: Space-Track

Эпоха: Sep 14, 2026, 10:11 UTC

1 26073U 00006C   26257.42460365  .00000075  00000-0  10779-3 0  9995
2 26073  71.0772  53.1952 0194027 185.7348 204.6612 13.74731572334717

Отслеживайте SL-16 DEB в реальном времени с AllMySat

Download on the App Store